Weather History for Seldovia, AK

Change the Weather History Date:

Friday, April 26, 2013

  Actual Average (PAHO) Record (PAHO)
Temperature  
Mean Temperature 36 °F -  
Max Temperature 41 °F 46 °F 56 °F (1936)
Min Temperature 30 °F 32 °F 22 °F (1955)
Degree Days  
Heating Degree Days 30    
Moisture  
Dew Point 17 °F    
Average Humidity 49    
Maximum Humidity 79    
Minimum Humidity 35    
Precipitation  
Precipitation 0.00 in - - ()
Sea Level Pressure  
Sea Level Pressure 29.64 in    
Wind  
Wind Speed 7 mph (NNE)    
Max Wind Speed 12 mph    
Max Gust Speed 23 mph    
Visibility 10 miles    
Events      
Averages and records for this station are not official NWS values.
T = Trace of Precipitation, MM = Missing Value Source: NWS Daily Summary

Daily Weather History Graph

Daily Weather History Graph

Search for Another Location

Airport:

Trip Planner

Search our weather history database for the weather conditions in past years. The results will help you decide how hot, cold, wet, or windy it might be!

Date:

Astronomy

Apr. 26, 2013 Rise Set
Actual Time 6:19 AM AKDT 9:51 PM AKDT
Civil Twilight 5:30 AM AKDT 10:41 PM AKDT
Nautical Twilight 4:19 AM AKDT 11:53 PM AKDT
Astronomical Twilight 2:37 AM AKDT 1:32 AM AKDT
Moon 11:49 PM AKDT (4/26) 6:40 AM AKDT (4/26)
Length of Visible Light 17h 10m
Length of Day
15h 31m
Full, 99% of the Moon is Illuminated
Apr 26
Full
May 2
Last Quarter
May 9
New
May 17
First Quarter
May 24
Full

Hourly Weather History & Observations

Time (AKDT) Temp. Windchill Dew Point Humidity Pressure Visibility Wind Dir Wind Speed Gust Speed Precip Events Conditions
12:53 AM 35.1 °F 27.9 °F 10.9 °F 37% 29.76 in 10.0 mi North 9.2 mph 18.4 mph N/A   Clear
1:53 AM 34.0 °F 27.2 °F 12.9 °F 42% 29.76 in 10.0 mi North 8.1 mph - N/A   Clear
2:53 AM 34.0 °F 25.5 °F 10.9 °F 38% 29.76 in 10.0 mi North 11.5 mph - N/A   Clear
3:53 AM 34.0 °F 25.5 °F 12.9 °F 42% 29.76 in 10.0 mi NNE 11.5 mph 21.9 mph N/A   Clear
4:53 AM 32.0 °F 23.0 °F 12.0 °F 44% 29.75 in 10.0 mi North 11.5 mph 23.0 mph N/A   Clear
5:53 AM 32.0 °F 23.6 °F 10.9 °F 42% 29.75 in 10.0 mi North 10.4 mph 19.6 mph N/A   Clear
6:53 AM 30.9 °F 25.2 °F 12.9 °F 47% 29.74 in 10.0 mi North 5.8 mph - N/A   Clear
7:53 AM 30.9 °F - 10.0 °F 42% 29.73 in 10.0 mi Calm Calm - N/A   Clear
8:53 AM 33.1 °F 24.9 °F 12.0 °F 42% 29.72 in 10.0 mi NNE 10.4 mph - N/A   Clear
9:53 AM 34.0 °F 26.6 °F 15.1 °F 46% 29.71 in 10.0 mi NNE 9.2 mph - N/A   Clear
10:53 AM 35.1 °F 29.3 °F 10.0 °F 35% 29.68 in 10.0 mi Variable 6.9 mph - N/A   Clear
11:53 AM 36.0 °F 30.3 °F 12.0 °F 37% 29.68 in 10.0 mi North 6.9 mph - N/A   Clear
12:53 PM 37.9 °F 34.4 °F 17.1 °F 43% 29.65 in 10.0 mi Variable 4.6 mph - N/A   Clear
1:53 PM 37.0 °F 33.3 °F 19.0 °F 48% 29.63 in 10.0 mi Variable 4.6 mph - N/A   Partly Cloudy
2:53 PM 37.0 °F 33.3 °F 23.0 °F 57% 29.60 in 10.0 mi Variable 4.6 mph - N/A   Clear
3:53 PM 39.0 °F 33.4 °F 19.9 °F 46% 29.58 in 10.0 mi North 8.1 mph - N/A   Clear
4:53 PM 39.0 °F - 21.0 °F 49% 29.55 in 10.0 mi Calm Calm - N/A   Clear
5:53 PM 41.0 °F 36.4 °F 24.1 °F 51% 29.52 in 10.0 mi NNE 6.9 mph - N/A   Clear
6:53 PM 39.9 °F 37.8 °F 25.0 °F 55% 29.52 in 10.0 mi North 3.5 mph - N/A   Clear
7:53 PM 37.9 °F 33.5 °F 25.0 °F 60% 29.51 in 10.0 mi NNE 5.8 mph - N/A   Clear
8:53 PM 37.0 °F 33.3 °F 25.0 °F 62% 29.51 in 10.0 mi NNE 4.6 mph - N/A   Clear
9:53 PM 34.0 °F - 24.1 °F 67% 29.51 in 10.0 mi Calm Calm - N/A   Clear
10:53 PM 32.0 °F 28.7 °F 25.0 °F 75% 29.52 in 10.0 mi NNE 3.5 mph - N/A   Clear
11:53 PM 32.0 °F 28.7 °F 26.1 °F 79% 29.54 in 10.0 mi South 3.5 mph - N/A   Partly Cloudy